Weather History for KLXT - January, 2013

Change the Weather History Date:

Saturday, January 12, 2013

  Actual Average (KMKC) Record (KMKC)
Temperature  
Mean Temperature 40 °F -  
Max Temperature 55 °F 36 °F 63 °F (2014)
Min Temperature 23 °F 21 °F 0 °F (1997)
Degree Days  
Heating Degree Days 26    
Moisture  
Dew Point 18 °F    
Average Humidity 59    
Maximum Humidity 76    
Minimum Humidity 23    
Precipitation  
Precipitation 0.00 in - - ()
Sea Level Pressure  
Sea Level Pressure 29.99 in    
Wind  
Wind Speed 13 mph (NNW)    
Max Wind Speed 17 mph    
Max Gust Speed 29 mph    
Visibility 8 miles    
Events Snow    
Averages and records for this station are not official NWS values.
T = Trace of Precipitation, MM = Missing Value Source: NWS Daily Summary

Daily Weather History Graph

Daily Weather History Graph

Search for Another Location

Airport or City:

Trip Planner

Search our weather history database for the weather conditions in past years. The results will help you decide how hot, cold, wet, or windy it might be!

Date:

Astronomy

Jan. 12, 2013 Rise Set
Actual Time 7:35 AM CST 5:16 PM CST
Civil Twilight 7:06 AM CST 5:46 PM CST
Nautical Twilight 6:33 AM CST 6:18 PM CST
Astronomical Twilight 6:01 AM CST 6:51 PM CST
Moon 7:55 AM CST (1/12) 6:45 PM CST (1/12)
Length of Visible Light 10h 39m
Length of Day
9h 41m
New Moon, 1% of the Moon is Illuminated
Jan 12
New Moon
Jan 18
First Quarter
Jan 26
Full
Feb 3
Last Quarter
Feb 10
New

Hourly Weather History & Observations

Time (CST) Temp. Windchill Dew Point Humidity Pressure Visibility Wind Dir Wind Speed Gust Speed Precip Events Conditions
12:53 AM 55.0 °F - 18.0 °F 23% 29.77 in 10.0 mi West 17.3 mph 28.8 mph N/A   Mostly Cloudy
1:00 AM 53.6 °F - 19.4 °F 26% 29.78 in 10.0 mi West 12.7 mph 28.8 mph N/A   Mostly Cloudy
1:39 AM 51.8 °F - 21.2 °F 30% 29.81 in 10.0 mi West 10.4 mph - N/A   Overcast
1:53 AM 51.1 °F - 21.0 °F 31% 29.82 in 10.0 mi West 9.2 mph - N/A   Mostly Cloudy
2:14 AM 48.2 °F - 24.8 °F 40% 29.83 in 9.0 mi West 16.1 mph 25.3 mph N/A   Overcast
2:53 AM 41.0 °F 33.9 °F 32.0 °F 70% 29.88 in 10.0 mi WNW 12.7 mph - N/A   Scattered Clouds
3:35 AM 35.6 °F 25.5 °F 28.4 °F 75% 29.92 in 10.0 mi NW 17.3 mph 25.3 mph N/A   Mostly Cloudy
3:53 AM 35.1 °F 25.2 °F 28.0 °F 76% 29.94 in 10.0 mi NW 16.1 mph 23.0 mph N/A   Mostly Cloudy
4:04 AM 33.8 °F 24.3 °F 26.6 °F 75% 29.92 in 10.0 mi NW 13.8 mph - N/A   Scattered Clouds
4:53 AM 32.0 °F 22.5 °F 23.0 °F 69% 29.96 in 10.0 mi NW 12.7 mph 19.6 mph N/A   Clear
5:53 AM 30.9 °F 22.8 °F 21.9 °F 69% 29.98 in 10.0 mi NW 9.2 mph - N/A   Clear
6:53 AM 28.9 °F 18.2 °F 19.0 °F 67% 30.01 in 10.0 mi NW 13.8 mph - N/A   Clear
7:53 AM 28.0 °F 17.5 °F 16.0 °F 61% 30.04 in 10.0 mi NNW 12.7 mph - N/A   Clear
8:53 AM 28.0 °F 19.3 °F 16.0 °F 61% 30.06 in 10.0 mi NNW 9.2 mph - N/A   Scattered Clouds
9:53 AM 28.9 °F 21.1 °F 15.1 °F 56% 30.09 in 10.0 mi NW 8.1 mph - N/A   Overcast
11:53 AM 30.9 °F 19.8 °F 12.9 °F 47% 30.04 in 10.0 mi NNW 16.1 mph - N/A   Clear
12:53 PM 30.9 °F 22.2 °F 14.0 °F 50% 30.03 in 10.0 mi North 10.4 mph - N/A   Overcast
1:53 PM 30.0 °F 20.5 °F 14.0 °F 51% 30.04 in 10.0 mi NNW 11.5 mph - N/A   Overcast
2:31 PM 28.4 °F 18.5 °F 17.6 °F 64% 30.01 in 1.8 mi North 11.5 mph - 0.00 in Snow Light Snow
2:43 PM 28.4 °F 18.5 °F 19.4 °F 69% 30.00 in 3.0 mi North 11.5 mph - 0.00 in Snow Light Snow
2:53 PM 28.0 °F 18.6 °F 19.0 °F 69% 30.02 in 2.5 mi North 10.4 mph - 0.00 in Snow Light Snow
3:08 PM 26.6 °F 17.5 °F 19.4 °F 74% 30.00 in 1.8 mi North 9.2 mph - 0.00 in Snow Light Snow
3:26 PM 26.6 °F 16.8 °F 19.4 °F 74% 30.00 in 0.8 mi North 10.4 mph - 0.00 in Snow Light Snow
3:35 PM 26.6 °F 16.2 °F 19.4 °F 74% 30.00 in 1.0 mi North 11.5 mph - 0.00 in Snow Light Snow
3:47 PM 26.6 °F 16.2 °F 19.4 °F 74% 30.01 in 3.0 mi North 11.5 mph - 0.00 in Snow Light Snow
3:53 PM 27.0 °F 18.7 °F 18.0 °F 69% 30.05 in 6.0 mi North 8.1 mph - 0.00 in Snow Light Snow
4:35 PM 28.4 °F 18.0 °F 15.8 °F 59% 30.05 in 10.0 mi NNW 12.7 mph - 0.00 in   Overcast
4:53 PM 28.0 °F 20.0 °F 15.1 °F 58% 30.06 in 10.0 mi NNW 8.1 mph - 0.00 in   Overcast
5:53 PM 27.0 °F 15.6 °F 14.0 °F 58% 30.06 in 9.0 mi NNW 13.8 mph 20.7 mph 0.00 in   Overcast
7:53 PM 25.0 °F 12.6 °F 10.9 °F 55% 30.06 in 10.0 mi North 15.0 mph - N/A   Overcast
8:53 PM 24.1 °F 11.5 °F 12.9 °F 62% 30.08 in 10.0 mi NNW 15.0 mph - 0.00 in Snow Light Snow
9:53 PM 24.1 °F 11.5 °F 12.9 °F 62% 30.08 in 10.0 mi North 15.0 mph - 0.00 in   Overcast
10:53 PM 24.1 °F 12.5 °F 12.0 °F 60% 30.09 in 10.0 mi North 12.7 mph - N/A   Overcast
11:53 PM 23.0 °F 10.1 °F 10.9 °F 60% 30.09 in 10.0 mi NNW 15.0 mph - N/A   Mostly Cloudy